When you browse on this site, cookies collect data to enhance your experience and personalize the content and advertising you see.
Visit our Privacy Policy to learn more. By continuing to use the site, you agree to this use of cookies and data.
  • în România
  • Lista ţărilor
  • Pe 7 zile
  • Temperatura apei
  • Meteo pe hartă
  • Widget-uri
  • user-avatar
    Intrare

    Meteo pe oră la Keflavík

    Astăzi, 6 Iunie, Sâmbătă

    Timp Temperatura Precipitaţii Vânt Presiune Umiditate
    00:00 +2°C° 0 mm 7 m/s 766 mmHg 60%
    01:00 +1°C° 0 mm 8 m/s 766 mmHg 62%
    02:00 +1°C° 0 mm 8 m/s 765 mmHg 61%
    03:00 +2°C° 0 mm 8 m/s 765 mmHg 59%
    04:00 +3°C° 0 mm 6 m/s 765 mmHg 56%
    05:00 +4°C° 0 mm 7 m/s 765 mmHg 52%
    06:00 +5°C° 0 mm 7 m/s 765 mmHg 47%
    07:00 +5°C° 0 mm 7 m/s 765 mmHg 43%
    08:00 +6°C° 0 mm 7 m/s 765 mmHg 43%
    09:00 +8°C° 0 mm 7 m/s 764 mmHg 43%
    10:00 +9°C° 0 mm 7 m/s 764 mmHg 43%
    11:00 +9°C° 0 mm 7 m/s 764 mmHg 44%
    12:00 +10°C° 0 mm 6 m/s 763 mmHg 45%
    13:00 +10°C° 0 mm 6 m/s 763 mmHg 46%
    14:00 +10°C° 0 mm 6 m/s 763 mmHg 48%
    15:00 +10°C° 0 mm 6 m/s 762 mmHg 50%
    16:00 +9°C° 0 mm 6 m/s 762 mmHg 52%
    17:00 +9°C° 0 mm 5 m/s 762 mmHg 53%
    18:00 +8°C° 0 mm 5 m/s 762 mmHg 55%
    19:00 +8°C° 0 mm 4 m/s 762 mmHg 57%
    20:00 +8°C° 0 mm 3 m/s 761 mmHg 59%
    21:00 +8°C° 0 mm 2 m/s 761 mmHg 62%
    22:00 +8°C° 0 mm 2 m/s 760 mmHg 65%
    23:00 +9°C° 0 mm 1 m/s 760 mmHg 65%

    Mâine, 7 Iunie, Duminică

    Timp Temperatura Precipitaţii Vânt Presiune Umiditate
    00:00 +8°C° 0 mm 1 m/s 760 mmHg 65%
    01:00 +8°C° 0 mm 1 m/s 759 mmHg 65%
    02:00 +9°C° 0 mm 1 m/s 759 mmHg 64%
    03:00 +8°C° 0 mm 2 m/s 758 mmHg 63%
    04:00 +9°C° 0 mm 3 m/s 758 mmHg 62%
    05:00 +7°C° 0 mm 4 m/s 758 mmHg 63%
    06:00 +7°C° 0 mm 4 m/s 758 mmHg 64%
    07:00 +7°C° 0 mm 5 m/s 758 mmHg 66%
    08:00 +7°C° 0 mm 6 m/s 757 mmHg 66%
    09:00 +6°C° 0 mm 7 m/s 757 mmHg 67%
    10:00 +7°C° 0 mm 8 m/s 757 mmHg 68%
    11:00 +7°C° 0.2 mm 9 m/s 757 mmHg 71%
    12:00 +6°C° 0.2 mm 9 m/s 757 mmHg 75%
    13:00 +6°C° 0.2 mm 10 m/s 757 mmHg 79%
    14:00 +6°C° 0.2 mm 9 m/s 756 mmHg 83%
    15:00 +7°C° 0.2 mm 8 m/s 756 mmHg 86%
    16:00 +7°C° 0.2 mm 8 m/s 756 mmHg 90%
    17:00 +6°C° 0 mm 8 m/s 755 mmHg 90%
    18:00 +6°C° 0 mm 8 m/s 755 mmHg 90%
    19:00 +6°C° 0 mm 8 m/s 755 mmHg 90%
    20:00 +7°C° 0.3 mm 8 m/s 755 mmHg 90%
    21:00 +7°C° 0.3 mm 8 m/s 754 mmHg 91%
    22:00 +7°C° 0.3 mm 8 m/s 754 mmHg 91%
    23:00 +7°C° 1.6 mm 8 m/s 753 mmHg 92%

    Poimâine, 8 Iunie, Luni

    Timp Temperatura Precipitaţii Vânt Presiune Umiditate
    00:00 +8°C° 1.6 mm 9 m/s 752 mmHg 93%
    01:00 +8°C° 1.6 mm 9 m/s 752 mmHg 94%
    02:00 +8°C° 1.6 mm 9 m/s 751 mmHg 94%
    03:00 +8°C° 1.6 mm 9 m/s 750 mmHg 94%
    04:00 +8°C° 1.6 mm 9 m/s 750 mmHg 94%
    05:00 +9°C° 1.1 mm 8 m/s 749 mmHg 95%
    06:00 +9°C° 1.1 mm 8 m/s 749 mmHg 95%
    07:00 +9°C° 1.1 mm 7 m/s 749 mmHg 95%
    08:00 +9°C° 1.2 mm 6 m/s 749 mmHg 96%
    09:00 +9°C° 1.2 mm 6 m/s 748 mmHg 96%
    10:00 +9°C° 1.2 mm 5 m/s 748 mmHg 96%
    11:00 +9°C° 1.6 mm 5 m/s 748 mmHg 97%
    12:00 +9°C° 1.6 mm 5 m/s 748 mmHg 97%
    13:00 +9°C° 1.6 mm 5 m/s 748 mmHg 97%
    14:00 +8°C° 0.5 mm 6 m/s 749 mmHg 96%
    15:00 +8°C° 0.5 mm 6 m/s 749 mmHg 95%
    16:00 +6°C° 0.5 mm 7 m/s 749 mmHg 94%
    17:00 +7°C° 0 mm 6 m/s 749 mmHg 91%
    18:00 +7°C° 0 mm 5 m/s 750 mmHg 88%
    19:00 +6°C° 0 mm 5 m/s 750 mmHg 85%
    20:00 +6°C° 0.1 mm 4 m/s 750 mmHg 84%
    21:00 +6°C° 0.1 mm 4 m/s 750 mmHg 83%
    22:00 +6°C° 0.1 mm 4 m/s 750 mmHg 82%
    23:00 +6°C° 0.1 mm 4 m/s 750 mmHg 82%

    9 Iunie, Marţi

    Timp Temperatura Precipitaţii Vânt Presiune Umiditate
    00:00 +6°C° 0.1 mm 4 m/s 750 mmHg 82%
    01:00 +6°C° 0.1 mm 4 m/s 750 mmHg 82%
    02:00 +7°C° 0.1 mm 3 m/s 751 mmHg 81%
    03:00 +7°C° 0.1 mm 3 m/s 751 mmHg 81%
    04:00 +7°C° 0.1 mm 2 m/s 751 mmHg 80%
    05:00 +8°C° 0 mm 2 m/s 751 mmHg 76%
    06:00 +8°C° 0 mm 2 m/s 752 mmHg 72%
    07:00 +10°C° 0 mm 1 m/s 752 mmHg 68%
    08:00 +10°C° 0 mm 1 m/s 752 mmHg 70%
    09:00 +10°C° 0 mm 1 m/s 752 mmHg 71%
    10:00 +10°C° 0 mm 1 m/s 753 mmHg 72%
    11:00 +10°C° 0 mm 2 m/s 753 mmHg 70%
    12:00 +12°C° 0 mm 2 m/s 753 mmHg 67%
    13:00 +12°C° 0 mm 2 m/s 754 mmHg 64%
    14:00 +11°C° 0 mm 3 m/s 754 mmHg 65%
    15:00 +11°C° 0 mm 3 m/s 754 mmHg 66%
    16:00 +11°C° 0 mm 3 m/s 755 mmHg 67%
    17:00 +10°C° 0 mm 2 m/s 755 mmHg 68%
    18:00 +10°C° 0 mm 2 m/s 756 mmHg 69%
    19:00 +11°C° 0 mm 1 m/s 756 mmHg 69%
    20:00 +10°C° 0 mm 1 m/s 756 mmHg 73%
    21:00 +8°C° 0 mm 2 m/s 757 mmHg 77%
    22:00 +7°C° 0 mm 2 m/s 757 mmHg 81%
    23:00 +8°C° 0 mm 1 m/s 757 mmHg 82%

    10 Iunie, Miercuri

    Timp Temperatura Precipitaţii Vânt Presiune Umiditate
    00:00 +8°C° 0 mm 1 m/s 758 mmHg 83%
    01:00 +8°C° 0 mm 1 m/s 758 mmHg 84%
    02:00 +8°C° 0 mm 1 m/s 758 mmHg 81%
    03:00 +7°C° 0 mm 2 m/s 758 mmHg 79%
    04:00 +8°C° 0 mm 2 m/s 759 mmHg 76%
    05:00 +9°C° 0 mm 3 m/s 759 mmHg 75%
    06:00 +8°C° 0 mm 4 m/s 759 mmHg 73%
    07:00 +9°C° 0 mm 5 m/s 759 mmHg 71%
    08:00 +9°C° 0 mm 6 m/s 759 mmHg 71%
    09:00 +10°C° 0 mm 7 m/s 759 mmHg 70%
    10:00 +10°C° 0 mm 7 m/s 759 mmHg 69%
    11:00 +10°C° 0 mm 8 m/s 759 mmHg 69%
    12:00 +10°C° 0 mm 9 m/s 759 mmHg 69%
    13:00 +9°C° 0 mm 10 m/s 759 mmHg 69%
    14:00 +9°C° 0 mm 12 m/s 758 mmHg 72%
    15:00 +8°C° 0 mm 13 m/s 758 mmHg 74%
    16:00 +8°C° 0 mm 14 m/s 757 mmHg 77%
    17:00 +8°C° 0.4 mm 15 m/s 757 mmHg 80%
    18:00 +7°C° 0.4 mm 16 m/s 757 mmHg 84%
    19:00 +6°C° 0.4 mm 17 m/s 756 mmHg 87%
    20:00 +6°C° 1.7 mm 16 m/s 756 mmHg 88%
    21:00 +8°C° 1.7 mm 15 m/s 756 mmHg 90%
    22:00 +8°C° 1.7 mm 14 m/s 756 mmHg 91%
    23:00 +8°C° 2.5 mm 12 m/s 756 mmHg 92%

    11 Iunie, Joi

    Timp Temperatura Precipitaţii Vânt Presiune Umiditate
    00:00 +8°C° 2.5 mm 9 m/s 756 mmHg 94%
    01:00 +9°C° 2.5 mm 7 m/s 756 mmHg 95%
    02:00 +8°C° 1.3 mm 7 m/s 756 mmHg 94%
    03:00 +8°C° 1.3 mm 7 m/s 756 mmHg 92%
    04:00 +8°C° 1.3 mm 7 m/s 756 mmHg 91%
    05:00 +8°C° 0 mm 6 m/s 756 mmHg 84%
    06:00 +8°C° 0 mm 6 m/s 756 mmHg 78%
    07:00 +8°C° 0 mm 6 m/s 756 mmHg 71%
    08:00 +8°C° 0.1 mm 6 m/s 756 mmHg 69%
    09:00 +9°C° 0.1 mm 6 m/s 756 mmHg 66%
    10:00 +9°C° 0.1 mm 6 m/s 756 mmHg 64%
    11:00 +9°C° 0 mm 6 m/s 756 mmHg 63%
    12:00 +10°C° 0 mm 6 m/s 756 mmHg 61%
    13:00 +10°C° 0 mm 6 m/s 756 mmHg 60%
    14:00 +9°C° 0 mm 6 m/s 757 mmHg 61%
    15:00 +9°C° 0 mm 6 m/s 757 mmHg 62%
    16:00 +9°C° 0 mm 6 m/s 757 mmHg 63%
    17:00 +9°C° 0 mm 6 m/s 757 mmHg 65%
    18:00 +8°C° 0 mm 6 m/s 757 mmHg 67%
    19:00 +8°C° 0 mm 5 m/s 757 mmHg 69%
    20:00 +7°C° 0 mm 5 m/s 757 mmHg 72%
    21:00 +7°C° 0 mm 5 m/s 757 mmHg 75%
    22:00 +6°C° 0 mm 5 m/s 757 mmHg 78%
    23:00 +6°C° 0 mm 4 m/s 757 mmHg 78%
    Arată mai mult